Location: Unspecified
(58.7730°N, 5.8460°E)
Time: 01:40:06
(UTC+01:00)

Okean 3 - Visible Passes

Search period start: 23 February 2018 00:00
Search period end: 05 March 2018 00:00
Orbit: 576 x 603 km, 82.5° (Epoch: 21 February)

Date Brightness Start Highest point End Pass type
(mag) Time Alt. Az. Time Alt. Az. Time Alt. Az.
23 Feb 3.7 18:56:25 10° NNW 19:00:38 75° W 19:04:47 10° S visible
23 Feb 6.8 20:35:13 10° NW 20:37:09 13° W 20:39:04 10° WSW visible
24 Feb 4.3 19:04:36 10° NNW 19:08:43 55° W 19:12:48 10° S visible
25 Feb 5.0 19:12:50 10° NNW 19:16:46 40° W 19:20:42 10° SSW visible
26 Feb 7.1 06:14:35 10° E 06:16:00 11° ENE 06:17:24 10° ENE visible
26 Feb 5.6 19:21:07 10° NNW 19:24:48 30° W 19:28:29 10° SSW visible
27 Feb 6.8 06:21:28 10° ESE 06:23:54 15° E 06:26:20 10° NE visible
27 Feb 6.2 19:29:28 10° NW 19:32:48 23° W 19:36:07 10° SW visible
28 Feb 6.6 06:28:47 10° SE 06:31:51 20° E 06:34:54 10° NE visible
28 Feb 6.7 19:37:56 10° NW 19:40:45 18° W 19:43:35 10° SW visible
01 Mar 6.1 06:36:20 10° SE 06:39:49 26° E 06:43:19 10° NNE visible
01 Mar 7.0 19:46:36 10° NW 19:48:41 14° W 19:50:46 10° WSW visible
02 Mar 5.5 06:44:02 10° SSE 06:47:49 34° E 06:51:38 10° NNE visible
02 Mar 7.5 19:56:13 10° WNW 19:56:35 10° WNW 19:56:57 10° W visible
04 Mar 7.3 05:26:25 10° E 05:27:32 11° ENE 05:28:39 10° ENE visible
